Flag for Germany Weather past 2 weeks in Cologne, North Rhine-Westphalia, Germany

Now
48 °F

Clear.


Feels Like: 46 °F
Forecast: 38 / 63 °F
Wind: 6 mph from East

Location: Koeln / Bonn

Current Time: Apr 20, 2015 at 1:51:35 AM

Latest Report: Apr 20, 2015 at 1:20 AM


Visibility: 10 mi

Pressure: 30.24 "Hg

Humidity: 54%

Dew point: 32 °F

Location of CologneLocation

Historic Weather in Cologne — Graph

°F

Cologne temperature yesterday

Maximum temperature yesterday: 63 °F (at 4:20 PM)
Minimum temperature yesterday: 30 °F (at 6:50 AM)
Average temperature yesterday: 49 °F

Past Weeks' High & Low Weather Summary

 TemperatureHumidityPressure
High77 °F (Apr 15, 4:20 PM)100% (Apr 7, 4:20 AM)30.66 "Hg (Apr 7, 4:20 AM)
Low27 °F (Apr 7, 6:50 AM)16% (Apr 10, 6:20 PM)29.89 "Hg (Apr 16, 5:50 PM)
Average50 °F60%30.26 "Hg
* Reported Apr 5 12:20 AM — Apr 20 12:20 AM, Cologne, Weather by CustomWeather, © 2015

Note: Actual official high and low records may vary slightly from our data, if they occured in-between our weather recording intervals... More about our weather records

Advertising

Cologne weather history for previous 24 hours

 ConditionsComfort  
Time TempWeatherWind HumidityBarometerVisibility
12:20 AM
Mon, Apr 20
50 °FClear.8 mph50%30.21 "Hg10 mi
11:50 PM
Sun, Apr 19
52 °FClear.9 mph47%30.21 "Hg10 mi
11:20 PM52 °FClear.9 mph47%30.21 "Hg10 mi
10:50 PM52 °FClear.8 mph47%30.21 "Hg10 mi
10:20 PM54 °FClear.7 mph44%30.18 "Hg10 mi
9:50 PM55 °FClear.7 mph41%30.18 "Hg10 mi
9:20 PM55 °FPassing clouds.7 mph44%30.18 "HgN/A
8:50 PM57 °FSunny.8 mph41%30.15 "Hg10 mi
8:20 PM59 °FPassing clouds.6 mph36%30.15 "HgN/A
7:50 PM63 °FSunny.5 mph25%30.12 "Hg10 mi
7:20 PM63 °FSunny.5 mph24%30.12 "Hg10 mi
6:50 PM63 °FSunny.6 mph24%30.12 "Hg10 mi
6:20 PM63 °FSunny.6 mph24%30.12 "Hg10 mi
5:50 PM63 °FSunny.3 mph27%30.12 "Hg10 mi
5:20 PM63 °FPassing clouds.5 mph25%30.12 "HgN/A
4:50 PM63 °FSunny.5 mph27%30.12 "Hg10 mi
4:20 PM63 °FSunny.7 mph30%30.12 "Hg10 mi
3:50 PM61 °FSunny.8 mph31%30.12 "Hg10 mi
3:20 PM59 °FSunny.8 mph31%30.12 "Hg10 mi
2:50 PM61 °FSunny.5 mph31%30.15 "Hg10 mi
2:20 PM59 °FSunny.6 mph31%30.15 "Hg10 mi
1:50 PM59 °FSunny.5 mph31%30.15 "Hg10 mi
1:20 PM57 °FSunny.3 mph33%30.15 "Hg10 mi
12:50 PM55 °FSunny.6 mph33%30.15 "Hg10 mi
12:20 PM55 °FPassing clouds.5 mph38%30.15 "HgN/A
11:50 AM54 °FSunny.5 mph44%30.15 "Hg10 mi
11:20 AM54 °FSunny.5 mph44%30.15 "Hg10 mi
10:50 AM52 °FSunny.5 mph47%30.18 "Hg10 mi
10:20 AM48 °FSunny.3 mph54%30.18 "Hg10 mi
9:50 AM45 °FSunny.2 mph66%30.18 "Hg10 mi
9:20 AM43 °FSunny.2 mph71%30.18 "Hg10 mi
8:50 AM39 °FSunny.2 mph81%30.18 "Hg10 mi
8:20 AM36 °FSunny.2 mph87%30.18 "Hg10 mi
7:50 AM32 °FSunny.2 mph93%30.18 "Hg10 mi
7:20 AM32 °FClear.1 mph87%30.18 "Hg10 mi
6:50 AM30 °FClear.1 mph93%30.18 "Hg10 mi
6:20 AM32 °FClear.2 mph80%30.18 "Hg10 mi
5:50 AM37 °FClear.3 mph75%30.18 "Hg10 mi
5:20 AM32 °FClear.6 mph87%30.18 "Hg10 mi
4:50 AM34 °FClear.5 mph81%30.18 "Hg10 mi
4:20 AM32 °FClear.5 mph80%30.21 "Hg10 mi
3:50 AM37 °FClear.8 mph75%30.21 "Hg10 mi
3:20 AM36 °FClear.1 mph81%30.21 "Hg10 mi
2:50 AM36 °FClear.3 mph81%30.21 "Hg10 mi
2:20 AM37 °FClear.3 mph75%30.24 "Hg10 mi
1:20 AM37 °FClear.5 mph70%30.24 "Hg10 mi
Weather by CustomWeather, © 2015

See weather overviewHow to use our weather pages